This demonstration page uses our WeatherBlox Daily Observations layout. Learn more.

36.17497, -115.13722

Hourly Observations for April 18, 2015

Temp ( °F °C ) Dew Point ( °F °C ) Humidity (%) Winds ( mph kmh ) Pressure ( in mb ) Visibility ( mi km ) Precip ( " mm )
12:53 am 00:53 Clear 62 16.7 14 -10 15 15 NNE 5 7 29.96 1014 10 16.0934 0 0
1:53 am 01:53 Clear 67 19.4 14 -10 13 13 N 6 9 29.94 1014 10 16.0934 0 0
2:53 am 02:53 Clear 60 15.6 15 -9.4 17 17 Calm 29.95 1014 10 16.0934 0 0
3:53 am 03:53 Clear 58 14.4 18 -7.8 21 21 WNW 8 13 29.96 1015 10 16.0934 0 0
4:53 am 04:53 Clear 57 13.9 20 -6.7 24 24 N 5 7 29.96 1015 10 16.0934 0 0
5:53 am 05:53 Clear 57 13.9 19 -7.2 23 23 WNW 6 9 29.97 1015 10 16.0934 0 0
6:53 am 06:53 Sunny 59 15 17 -8.3 19 19 WNW 6 9 29.98 1015 10 16.0934 0 0
7:53 am 07:53 Sunny 65 18.3 16 -8.9 15 15 Calm 30 1016 10 16.0934 0 0
8:53 am 08:53 Sunny 69 20.6 14 -10 12 12 Calm 29.99 1016 10 16.0934 0 0
9:53 am 09:53 Sunny 72 22.2 13 -10.6 10 10 SE 3 6 29.98 1015 10 16.0934 0 0
10:53 am 10:53 Sunny 76 24.4 14 -10 9 9 SSE 6 9 29.97 1015 10 16.0934 0 0
11:53 am 11:53 Sunny 79 26.1 14 -10 8 8 SSE 8 13 29.95 1014 10 16.0934 0 0
12:53 pm 12:53 Sunny 80 26.7 14 -10 8 8 SSE 7 11 29.93 1014 10 16.0934 0 0
1:53 pm 13:53 Sunny 83 28.3 11 -11.7 6 6 S 7 11 29.9 1013 10 16.0934 0 0
2:53 pm 14:53 Sunny 83 28.3 11 -11.7 6 6 VRB 7 11 29.88 1012 10 16.0934 0 0
3:53 pm 15:53 Sunny 85 29.4 10 -12.2 6 6 S 10 17 29.84 1011 10 16.0934 0 0
4:53 pm 16:53 Sunny 85 29.4 8 -13.3 5 5 S 8 13 29.83 1010 10 16.0934 0 0
5:53 pm 17:53 Sunny 85 29.4 8 -13.3 5 5 VRB 6 9 29.82 1010 10 16.0934 0 0
6:53 pm 18:53 Sunny 83 28.3 11 -11.7 6 6 S 9 15 29.8 1009 10 16.0934 0 0
7:53 pm 19:53 Clear 81 27.2 11 -11.7 7 7 S 8 13 29.81 1009 10 16.0934 0 0
8:53 pm 20:53 Clear 76 24.4 12 -11.1 9 9 S 6 9 29.82 1010 10 16.0934 0 0
9:53 pm 21:53 Clear 73 22.8 17 -8.3 12 12 SW 9 15 29.83 1010 10 16.0934 0 0
10:53 pm 22:53 Clear 72 22.2 15 -9.4 11 11 NW 9 15 29.84 1010 10 16.0934 0 0
11:53 pm 23:53 Clear 70 21.1 16 -8.9 12 12 N 5 7 29.85 1011 10 16.0934 0 0

Powered by AerisWeather